Location: Binningen
(47.7924°N, 8.7261°E)
Time: 19:12:21
(UTC+00:00)

Cosmos 1733 Rocket - Pass Details

Date: 01 October 2021
Orbit: 604 x 627 km, 82.5° (Epoch: 21 October)

Event Time Altitude Azimuth Distance (km) Brightness Sun altitude
Rises 03:08:06 0° 357° (N) 2,896 6.8 -23.2°
Reaches altitude 10° 03:10:29 10° 7° (N) 1,990 6.0 -22.8°
Maximum altitude 03:14:33 35° 74° (ENE) 1,007 4.7 -22.2°
Drops below altitude 10° 03:18:35 10° 140° (SE) 1,988 5.9 -21.6°
Sets 03:20:58 0° 150° (SSE) 2,893 6.6 -21.2°
